Edison
DateTemperatureDew Point
07/12 - 09:45 PM87.0°56.0°
07/12 - 09:30 PM83.5°57.5°
07/12 - 09:15 PM82.0°60.7°
07/12 - 09:00 PM82.7°61.2°
07/12 - 08:45 PM83.3°64.0°
07/12 - 08:30 PM84.4°64.2°
07/12 - 08:15 PM86.3°63.8°
07/12 - 08:00 PM88.9°63.2°
07/12 - 07:45 PM91.1°60.5°
07/12 - 07:30 PM92.0°58.7°
07/12 - 07:15 PM93.6°58.9°
07/12 - 07:00 PM95.5°60.1°
07/12 - 06:45 PM96.6°59.8°
07/12 - 06:30 PM97.9°61.3°
07/12 - 06:15 PM100.0°62.3°
07/12 - 06:00 PM102.6°62.6°
07/12 - 05:45 PM104.4°61.8°
07/12 - 05:30 PM104.4°61.2°
07/12 - 05:15 PM105.1°63.2°
07/12 - 05:00 PM105.5°62.4°
07/12 - 04:45 PM105.9°62.4°
07/12 - 04:30 PM105.7°62.4°
07/12 - 04:15 PM105.0°62.4°
07/12 - 04:00 PM105.4°63.9°
07/12 - 03:45 PM104.8°62.7°
07/12 - 03:30 PM104.6°62.8°
07/12 - 03:15 PM104.2°62.8°
07/12 - 03:00 PM105.9°63.0°
07/12 - 02:45 PM106.7°62.7°
07/12 - 02:30 PM107.2°64.3°
07/12 - 02:15 PM107.5°63.7°
07/12 - 02:00 PM106.6°61.5°
07/12 - 01:45 PM106.8°61.1°
07/12 - 01:30 PM105.9°61.7°
07/12 - 01:15 PM104.5°62.6°
07/12 - 01:00 PM104.2°62.6°
07/12 - 12:45 PM101.5°60.9°
07/12 - 12:30 PM102.7°61.3°
07/12 - 12:15 PM104.4°61.3°
07/12 - 12:00 PM102.4°61.9°
07/12 - 11:45 AM103.5°61.7°
07/12 - 11:30 AM103.1°61.7°
07/12 - 11:15 AM99.2°62.4°
07/12 - 11:00 AM98.1°59.7°
07/12 - 10:45 AM98.6°62.6°
07/12 - 10:30 AM97.3°60.6°
07/12 - 10:15 AM97.3°58.2°
07/12 - 10:00 AM97.8°59.8°
07/12 - 09:45 AM97.7°59.7°
07/12 - 09:30 AM97.0°58.4°
07/12 - 09:15 AM95.3°58.6°
07/12 - 09:00 AM93.6°59.5°
07/12 - 08:45 AM90.9°60.9°
07/12 - 08:30 AM89.5°61.0°
07/12 - 08:15 AM88.2°60.6°
07/12 - 08:00 AM87.3°58.5°
07/12 - 07:45 AM85.7°56.6°
07/12 - 07:30 AM83.0°58.4°
07/12 - 07:15 AM81.8°62.3°
07/12 - 07:00 AM82.1°59.1°
07/12 - 06:45 AM83.0°56.1°
07/12 - 06:30 AM83.7°55.1°
07/12 - 06:15 AM83.6°54.0°
07/12 - 06:00 AM82.9°54.0°
07/12 - 05:45 AM81.8°54.9°
07/12 - 05:30 AM82.2°54.7°
07/12 - 05:15 AM82.8°54.5°
07/12 - 05:00 AM82.9°54.8°
07/12 - 04:45 AM82.5°54.3°
07/12 - 04:30 AM82.7°54.3°
07/12 - 04:15 AM82.3°54.7°
07/12 - 04:00 AM82.8°55.0°
07/12 - 03:45 AM82.8°55.4°
07/12 - 03:30 AM82.9°55.3°
07/12 - 03:15 AM83.2°55.3°
07/12 - 03:00 AM83.0°55.4°
07/12 - 02:45 AM83.5°55.4°
07/12 - 02:30 AM83.5°55.4°
07/12 - 02:15 AM83.6°55.6°
07/12 - 02:00 AM84.4°55.7°
07/12 - 01:45 AM85.4°55.3°
07/12 - 01:30 AM85.5°55.4°
07/12 - 01:15 AM85.8°55.6°
07/12 - 01:00 AM85.7°55.5°
07/12 - 12:45 AM85.2°55.8°
07/12 - 12:30 AM84.4°56.3°
07/12 - 12:15 AM84.9°57.5°
07/12 - 12:00 AM86.5°56.1°
07/11 - 11:45 PM87.2°56.5°
07/11 - 11:30 PM87.7°56.7°
07/11 - 11:15 PM87.8°57.2°
07/11 - 11:00 PM88.5°57.1°
07/11 - 10:45 PM88.0°57.5°
07/11 - 10:30 PM87.5°58.3°
07/11 - 10:15 PM87.5°58.5°
07/11 - 10:00 PM86.9°58.9°
07/11 - 09:45 PM86.6°58.8°
07/11 - 09:30 PM84.5°59.1°
07/11 - 09:15 PM83.2°63.2°
07/11 - 09:00 PM83.6°64.0°
07/11 - 08:45 PM85.4°65.0°
07/11 - 08:30 PM88.0°65.2°
07/11 - 08:15 PM91.3°65.3°
07/11 - 08:00 PM95.2°63.3°
07/11 - 07:45 PM98.0°62.4°
07/11 - 07:30 PM100.6°62.1°
07/11 - 07:15 PM101.4°61.9°
07/11 - 07:00 PM102.5°61.8°
07/11 - 06:45 PM103.7°62.4°
07/11 - 06:30 PM104.7°62.3°
07/11 - 06:15 PM105.6°62.9°
07/11 - 06:00 PM106.7°62.6°
07/11 - 05:45 PM107.5°62.7°
07/11 - 05:30 PM108.2°63.0°
07/11 - 05:15 PM109.5°63.2°
07/11 - 05:00 PM110.3°65.3°
07/11 - 04:45 PM110.3°65.0°
07/11 - 04:30 PM109.6°64.7°
07/11 - 04:15 PM109.9°65.3°
07/11 - 04:00 PM110.1°65.3°
07/11 - 03:45 PM110.1°65.6°
07/11 - 03:30 PM110.0°65.3°
07/11 - 03:15 PM109.6°65.3°
07/11 - 03:00 PM109.6°65.7°
07/11 - 02:45 PM109.6°64.8°
07/11 - 02:30 PM109.1°63.6°
07/11 - 02:15 PM108.4°63.5°
07/11 - 02:00 PM108.1°63.7°
07/11 - 01:45 PM108.0°64.0°
07/11 - 01:30 PM107.1°62.3°
07/11 - 01:15 PM106.8°63.0°
07/11 - 01:00 PM106.4°62.8°
07/11 - 12:45 PM105.2°61.1°
07/11 - 12:30 PM105.3°61.3°
07/11 - 12:15 PM104.5°61.9°
07/11 - 12:00 PM102.2°63.3°
07/11 - 11:45 AM101.8°62.8°
07/11 - 11:30 AM101.8°62.2°
07/11 - 11:15 AM101.0°62.9°
07/11 - 11:00 AM100.9°64.5°
07/11 - 10:45 AM100.6°64.0°
07/11 - 10:30 AM100.0°63.0°
07/11 - 10:15 AM99.1°61.0°
07/11 - 10:00 AM98.5°60.1°
07/11 - 09:45 AM97.6°59.1°
07/11 - 09:30 AM96.9°58.6°
07/11 - 09:15 AM96.0°58.7°
07/11 - 09:00 AM95.0°59.5°
07/11 - 08:45 AM93.7°59.7°
07/11 - 08:30 AM92.0°58.2°
07/11 - 08:15 AM90.2°57.6°
07/11 - 08:00 AM88.8°56.1°
07/11 - 07:45 AM86.9°56.7°
07/11 - 07:30 AM85.3°56.7°
07/11 - 07:15 AM83.6°56.4°
07/11 - 07:00 AM82.0°55.2°
07/11 - 06:45 AM80.5°55.9°
07/11 - 06:30 AM80.4°55.8°
07/11 - 06:15 AM80.7°54.1°
07/11 - 06:00 AM80.7°53.4°
07/11 - 05:45 AM81.2°53.3°
07/11 - 05:30 AM81.7°53.4°
07/11 - 05:15 AM81.5°53.4°
07/11 - 05:00 AM81.7°53.6°
07/11 - 04:45 AM82.2°53.6°
07/11 - 04:30 AM82.6°53.8°
07/11 - 04:15 AM83.2°53.8°
07/11 - 04:00 AM83.2°53.8°
07/11 - 03:45 AM83.3°54.1°
07/11 - 03:30 AM83.3°54.2°
07/11 - 03:15 AM83.3°54.2°
07/11 - 03:00 AM82.8°54.5°
07/11 - 02:45 AM82.7°54.7°
07/11 - 02:30 AM82.0°55.0°
07/11 - 02:15 AM82.4°55.2°
07/11 - 02:00 AM83.4°55.5°
07/11 - 01:45 AM85.0°55.3°
07/11 - 01:30 AM85.2°55.5°
07/11 - 01:15 AM85.6°55.9°
07/11 - 01:00 AM85.8°56.0°
07/11 - 12:45 AM85.9°56.1°
07/11 - 12:30 AM85.5°56.5°
07/11 - 12:15 AM85.7°56.6°
07/11 - 12:00 AM86.2°56.7°
07/10 - 11:45 PM87.0°56.9°
07/10 - 11:30 PM87.3°57.2°
07/10 - 11:15 PM87.6°57.3°
07/10 - 11:00 PM87.6°57.5°
07/10 - 10:45 PM87.6°57.9°